This is the latest recevied weather packets stored in our database for station/object KH6DH-13. If no packets are shown the sender has not sent any weather packets the latest 10 day(s).
| Time | Temp. | Humidity | Pressure | Rain* | Wind** | Luminosity | Snow |
|---|---|---|---|---|---|---|---|
| 1788282553 | 25° C | - | - | 0 mm | 1.79 m/s, 83° | - | - |
| 1788281952 | 25° C | - | - | 0 mm | 0.45 m/s, 52° | - | - |
| 1788281351 | 25° C | - | - | 0 mm | 2.24 m/s, 55° | - | - |
| 1788280750 | 25° C | - | - | 0 mm | 0.89 m/s, 62° | - | - |
| 1788280149 | 25° C | - | - | 0 mm | 1.79 m/s, 359° | - | - |
| 1788279548 | 25.56° C | - | - | 0 mm | 1.79 m/s, 52° | - | - |
| 1788278944 | 25° C | - | - | 0 mm | 1.79 m/s, 80° | - | - |
| 1788278343 | 25° C | - | - | 0 mm | 1.34 m/s, 44° | - | - |
| 1788277742 | 25° C | - | - | 0 mm | 1.34 m/s, 285° | - | - |
| 1788277141 | 25° C | - | - | 0 mm | 0.89 m/s, 56° | - | - |
| 1788276540 | 25° C | - | - | 0 mm | 1.34 m/s, 58° | - | - |
| 1788275939 | 25° C | - | - | 0 mm | 3.13 m/s, 93° | - | - |
| 1788275338 | 25° C | - | - | 0 mm | 1.79 m/s, 166° | - | - |
| 1788274737 | 25° C | - | - | 0 mm | 0 m/s | - | - |
| 1788274136 | 25° C | - | - | 0 mm | 1.34 m/s, 14° | - | - |
| 1788273535 | 25° C | - | - | 0 mm | 0.89 m/s, 60° | - | - |
| 1788272934 | 24.44° C | - | - | 0 mm | 1.79 m/s, 65° | - | - |
| 1788272333 | 25° C | - | - | 0 mm | 1.34 m/s, 18° | - | - |
| 1788271732 | 25° C | - | - | 0 mm | 0.89 m/s, 160° | - | - |
| 1788271131 | 25° C | - | - | 0 mm | 0.45 m/s, 46° | - | - |
| 1788270530 | 25° C | - | - | 0 mm | 1.79 m/s, 60° | - | - |
| 1788269929 | 25.56° C | - | - | 0 mm | 3.13 m/s, 82° | - | - |
| 1788269328 | 25° C | - | - | 0 mm | 1.34 m/s, 31° | - | - |
| 1788268727 | 25° C | - | - | 0 mm | 1.34 m/s, 46° | - | - |
| 1788268126 | 25° C | - | - | 0 mm | 0.45 m/s, 347° | - | - |
* Rain latest hour (hover to see other rain measurements)
** Current wind speed in m/s (hover to see current wind gust speed)